TimeMST,TemperatureF,Dew PointF,Humidity,Sea Level PressureIn,VisibilityMPH,Wind Direction,Wind SpeedMPH,Gust SpeedMPH,PrecipitationIn,Events,Conditions,WindDirDegrees,DateUTC
12:53 AM,26.1,12.0,55,30.02,10.0,SW,4.6,-,N/A,,Partly Cloudy,220,2013-02-21 07:53:00
1:53 AM,26.1,10.9,53,30.02,10.0,SW,3.5,-,N/A,,Clear,220,2013-02-21 08:53:00
2:53 AM,23.0,12.0,63,30.03,10.0,West,5.8,-,N/A,,Clear,270,2013-02-21 09:53:00
3:53 AM,21.0,12.0,68,30.05,10.0,Calm,Calm,-,N/A,,Clear,0,2013-02-21 10:53:00
4:53 AM,19.9,10.9,68,30.05,10.0,Calm,Calm,-,N/A,,Clear,0,2013-02-21 11:53:00
5:53 AM,19.0,10.9,71,30.06,10.0,Calm,Calm,-,N/A,,Clear,0,2013-02-21 12:53:00
6:53 AM,19.0,10.9,71,30.08,10.0,Calm,Calm,-,N/A,,Clear,0,2013-02-21 13:53:00
7:53 AM,19.9,12.0,71,30.10,10.0,Calm,Calm,-,N/A,,Clear,0,2013-02-21 14:53:00
8:53 AM,24.1,15.1,69,30.10,10.0,Calm,Calm,-,N/A,,Clear,0,2013-02-21 15:53:00
9:53 AM,30.0,12.0,47,30.07,10.0,West,12.7,-,N/A,,Clear,270,2013-02-21 16:53:00
10:53 AM,30.9,10.0,42,30.08,10.0,West,23.0,27.6,N/A,,Clear,260,2013-02-21 17:53:00
11:53 AM,32.0,9.0,38,30.07,10.0,West,20.7,27.6,N/A,,Partly Cloudy,260,2013-02-21 18:53:00
12:53 PM,34.0,9.0,35,30.04,10.0,West,16.1,-,N/A,,Clear,260,2013-02-21 19:53:00
1:53 PM,35.1,9.0,34,30.01,10.0,West,18.4,26.5,N/A,,Clear,270,2013-02-21 20:53:00
2:53 PM,34.0,9.0,35,30.02,10.0,West,18.4,26.5,N/A,,Mostly Cloudy,270,2013-02-21 21:53:00
3:53 PM,33.1,10.0,38,30.03,10.0,WSW,13.8,-,N/A,,Mostly Cloudy,250,2013-02-21 22:53:00
4:53 PM,33.1,10.9,40,30.02,10.0,West,13.8,-,N/A,,Overcast,270,2013-02-21 23:53:00
5:53 PM,32.0,12.0,44,30.02,10.0,West,6.9,-,N/A,,Scattered Clouds,260,2013-02-22 00:53:00
6:53 PM,32.0,12.0,44,30.02,10.0,SW,3.5,-,N/A,,Overcast,220,2013-02-22 01:53:00
7:53 PM,32.0,10.9,42,30.02,10.0,WSW,11.5,-,N/A,,Mostly Cloudy,240,2013-02-22 02:53:00
8:53 PM,30.9,15.1,52,30.01,10.0,SW,11.5,-,N/A,,Overcast,220,2013-02-22 03:53:00
9:53 PM,30.0,16.0,56,30.01,10.0,WSW,6.9,-,N/A,,Overcast,250,2013-02-22 04:53:00
10:53 PM,30.2,15.8,55,29.86,10.0,WSW,6.9,-,N/A,,Overcast,250,2013-02-22 05:53:00
11:53 PM,30.9,16.0,54,29.99,10.0,West,9.2,-,N/A,,Mostly Cloudy,260,2013-02-22 06:53:00